Poteau, OK

5:31 AM CDT on May 26, 2017 (GMT -0500)
Kerr

Weather History for KRKR - April, 2013

Change the Weather History Date:

Saturday, April 20, 2013

  Actual Average (KFSM) Record (KFSM)
Temperature  
Mean Temperature 57 °F -  
Max Temperature 73 °F 72 °F 94 °F (1987)
Min Temperature 41 °F 50 °F 35 °F (1978)
Degree Days  
Heating Degree Days 8    
Growing Degree Days 7 (Base 50)    
Moisture  
Dew Point 40 °F    
Average Humidity 58    
Maximum Humidity 93    
Minimum Humidity 27    
Precipitation  
Precipitation 0.00 in - - ()
Sea Level Pressure  
Sea Level Pressure 30.15 in    
Wind  
Wind Speed 3 mph (SSW)    
Max Wind Speed 9 mph    
Max Gust Speed 16 mph    
Visibility 10 miles    
Events      
Averages and records for this station are not official NWS values.
T = Trace of Precipitation, MM = Missing Value Source: NWS Daily Summary

Daily Weather History Graph

Daily Weather History Graph

Search for Another Location

Airport or City:

Trip Planner

Search our weather history database for the weather conditions in past years. The results will help you decide how hot, cold, wet, or windy it might be!

Date:

Astronomy

Apr. 20, 2013 Rise Set
Actual Time 6:39 AM CDT 7:55 PM CDT
Civil Twilight 6:13 AM CDT 8:21 PM CDT
Nautical Twilight 5:42 AM CDT 8:53 PM CDT
Astronomical Twilight 5:09 AM CDT 9:26 PM CDT
Moon 2:51 PM CDT (4/20) 3:17 AM CDT (4/20)
Length of Visible Light 14h 08m
Length of Day
13h 15m
Waxing Gibbous, 71% of the Moon is Illuminated
Apr 20
Waxing Gibbous
Apr 25
Full
May 2
Last Quarter
May 9
New
May 17
First Quarter

Hourly Weather History & Observations

Time (CDT) Temp. Windchill Dew Point Humidity Pressure Visibility Wind Dir Wind Speed Gust Speed Precip Events Conditions
12:15 AM 44.6 °F 43.1 °F 37.4 °F 76% 30.14 in 10.0 mi SW 3.5 mph - N/A   Clear
12:35 AM 46.4 °F - 35.6 °F 66% 30.14 in 10.0 mi Calm Calm - N/A   Clear
12:55 AM 46.4 °F 42.9 °F 35.6 °F 66% 30.14 in 10.0 mi SW 6.9 mph - N/A   Clear
1:15 AM 50.0 °F - 35.6 °F 58% 30.14 in 10.0 mi SW 4.6 mph - N/A   Clear
1:35 AM 48.2 °F - 37.4 °F 66% 30.14 in 10.0 mi SW 4.6 mph - N/A   Clear
1:55 AM 44.6 °F 43.1 °F 37.4 °F 76% 30.14 in 10.0 mi SW 3.5 mph - N/A   Clear
2:15 AM 42.8 °F 41.1 °F 37.4 °F 81% 30.14 in 10.0 mi SSW 3.5 mph - N/A   Clear
2:35 AM 42.8 °F 41.1 °F 37.4 °F 81% 30.14 in 10.0 mi SW 3.5 mph - N/A   Clear
2:55 AM 42.8 °F 40.1 °F 37.4 °F 81% 30.14 in 10.0 mi SW 4.6 mph - N/A   Clear
3:15 AM 44.6 °F 42.2 °F 35.6 °F 71% 30.14 in 10.0 mi SW 4.6 mph - N/A   Clear
3:35 AM 42.8 °F 40.1 °F 35.6 °F 76% 30.14 in 10.0 mi SW 4.6 mph - N/A   Clear
3:55 AM 42.8 °F 40.1 °F 37.4 °F 81% 30.15 in 10.0 mi SW 4.6 mph - N/A   Clear
4:15 AM 42.8 °F 41.1 °F 37.4 °F 81% 30.15 in 10.0 mi SW 3.5 mph - N/A   Clear
4:35 AM 42.8 °F 40.1 °F 37.4 °F 81% 30.15 in 10.0 mi SW 4.6 mph - N/A   Clear
4:55 AM 41.0 °F - 37.4 °F 87% 30.15 in 10.0 mi Calm Calm - N/A   Clear
5:15 AM 41.0 °F - 37.4 °F 87% 30.15 in 10.0 mi Calm Calm - N/A   Clear
5:35 AM 41.0 °F - 37.4 °F 87% 30.16 in 10.0 mi Calm Calm - N/A   Clear
5:55 AM 41.0 °F - 37.4 °F 87% 30.16 in 10.0 mi Calm Calm - N/A   Clear
6:15 AM 41.0 °F - 37.4 °F 87% 30.16 in 10.0 mi Calm Calm - N/A   Clear
6:35 AM 41.0 °F - 37.4 °F 87% 30.17 in 10.0 mi Calm Calm - N/A   Clear
6:55 AM 41.0 °F - 37.4 °F 87% 30.17 in 10.0 mi Calm Calm - N/A   Clear
7:15 AM 41.0 °F - 39.2 °F 93% 30.18 in 10.0 mi Calm Calm - N/A   Clear
7:35 AM 42.8 °F - 41.0 °F 93% 30.19 in 10.0 mi Calm Calm - N/A   Clear
7:55 AM 42.8 °F - 41.0 °F 93% 30.19 in 10.0 mi Calm Calm - N/A   Clear
8:15 AM 44.6 °F - 42.8 °F 93% 30.20 in 10.0 mi Calm Calm - N/A   Scattered Clouds
8:35 AM 51.8 °F - 42.8 °F 71% 30.21 in 10.0 mi Calm Calm - N/A   Clear
8:55 AM 53.6 °F - 41.0 °F 62% 30.21 in 10.0 mi SSW 3.5 mph - N/A   Clear
9:15 AM 55.4 °F - 41.0 °F 58% 30.22 in 10.0 mi Calm Calm - N/A   Clear
9:35 AM 55.4 °F - 41.0 °F 58% 30.22 in 10.0 mi Calm Calm - N/A   Clear
9:55 AM 57.2 °F - 41.0 °F 55% 30.22 in 10.0 mi Calm Calm - N/A   Clear
10:15 AM 59.0 °F - 41.0 °F 51% 30.22 in 10.0 mi South 3.5 mph - N/A   Clear
10:35 AM 60.8 °F - 39.2 °F 45% 30.23 in 10.0 mi SW 3.5 mph - N/A   Clear
10:55 AM 60.8 °F - 41.0 °F 48% 30.22 in 10.0 mi SW 4.6 mph - N/A   Clear
11:15 AM 62.6 °F - 39.2 °F 42% 30.22 in 10.0 mi SW 4.6 mph - N/A   Clear
11:35 AM 64.4 °F - 41.0 °F 42% 30.22 in 10.0 mi WSW 3.5 mph - N/A   Clear
11:55 AM 68.0 °F - 41.0 °F 37% 30.21 in 10.0 mi SSW 6.9 mph - N/A   Clear
12:15 PM 68.0 °F - 41.0 °F 37% 30.20 in 10.0 mi SSW 9.2 mph - N/A   Clear
12:35 PM 68.0 °F - 37.4 °F 33% 30.19 in 10.0 mi South 9.2 mph - N/A   Clear
12:55 PM 69.8 °F - 39.2 °F 33% 30.18 in 10.0 mi South 5.8 mph - N/A   Clear
1:15 PM 68.0 °F - 37.4 °F 33% 30.18 in 10.0 mi South 8.1 mph - N/A   Clear
1:35 PM 69.8 °F - 37.4 °F 31% 30.17 in 10.0 mi SSE 8.1 mph - N/A   Clear
1:55 PM 71.6 °F - 39.2 °F 31% 30.16 in 10.0 mi SSW 5.8 mph - N/A   Clear
2:15 PM 71.6 °F - 39.2 °F 31% 30.15 in 10.0 mi South 9.2 mph - N/A   Clear
2:35 PM 71.6 °F - 41.0 °F 33% 30.15 in 10.0 mi SSW 5.8 mph - N/A   Clear
2:55 PM 71.6 °F - 39.2 °F 31% 30.13 in 10.0 mi South 8.1 mph - N/A   Clear
3:15 PM 71.6 °F - 37.4 °F 29% 30.13 in 10.0 mi Calm Calm - N/A   Clear
3:55 PM 71.6 °F - 37.4 °F 29% 30.10 in 10.0 mi SSW 3.5 mph - N/A   Clear
4:15 PM 73.4 °F - 41.0 °F 31% 30.09 in 10.0 mi East 6.9 mph - N/A   Clear
4:35 PM 71.6 °F - 37.4 °F 29% 30.08 in 10.0 mi SSW 4.6 mph - N/A   Clear
4:55 PM 71.6 °F - 41.0 °F 33% 30.08 in 10.0 mi South 9.2 mph 16.1 mph N/A   Clear
5:15 PM 71.6 °F - 37.4 °F 29% 30.08 in 10.0 mi SSE 6.9 mph - N/A   Clear
5:35 PM 71.6 °F - 37.4 °F 29% 30.07 in 10.0 mi SE 8.1 mph - N/A   Clear
5:55 PM 71.6 °F - 35.6 °F 27% 30.08 in 10.0 mi SSE 8.1 mph - N/A   Clear
6:15 PM 71.6 °F - 41.0 °F 33% 30.08 in 10.0 mi South 8.1 mph - N/A   Clear
6:35 PM 69.8 °F - 42.8 °F 38% 30.08 in 10.0 mi South 8.1 mph - N/A   Clear
6:55 PM 71.6 °F - 44.6 °F 38% 30.08 in 10.0 mi South 5.8 mph - N/A   Clear
7:15 PM 69.8 °F - 42.8 °F 38% 30.08 in 10.0 mi SSE 4.6 mph - N/A   Clear
7:35 PM 68.0 °F - 41.0 °F 37% 30.09 in 10.0 mi SSE 6.9 mph - N/A   Clear
7:55 PM 66.2 °F - 41.0 °F 40% 30.10 in 10.0 mi SSE 4.6 mph - N/A   Clear
8:15 PM 64.4 °F - 41.0 °F 42% 30.11 in 10.0 mi SSE 4.6 mph - N/A   Clear
8:35 PM 62.6 °F - 41.0 °F 45% 30.13 in 10.0 mi SSE 4.6 mph - N/A   Clear
8:55 PM 62.6 °F - 41.0 °F 45% 30.13 in 10.0 mi Calm Calm - N/A   Clear
9:15 PM 60.8 °F - 44.6 °F 55% 30.14 in 10.0 mi Calm Calm - N/A   Clear
9:55 PM 59.0 °F - 44.6 °F 59% 30.16 in 10.0 mi Calm Calm - N/A   Clear
10:15 PM 57.2 °F - 46.4 °F 67% 30.17 in 10.0 mi Calm Calm - N/A   Clear
10:35 PM 59.0 °F - 48.2 °F 67% 30.17 in 10.0 mi Calm Calm - N/A   Clear
10:55 PM 55.4 °F - 48.2 °F 77% 30.18 in 10.0 mi Calm Calm - N/A   Clear
11:15 PM 55.4 °F - 48.2 °F 77% 30.18 in 10.0 mi Calm Calm - N/A   Clear
11:35 PM 55.4 °F - 48.2 °F 77% 30.18 in 10.0 mi Calm Calm - N/A   Clear
11:55 PM 55.4 °F - 48.2 °F 77% 30.18 in 10.0 mi Calm Calm - N/A   Clear